Regional Weather Roundup
Issued by NWS Cleveland, OH

Home | Current Version | Previous Version | Text Only | Print | Product List | Glossary On
Versions: 1 2 3 4 5 6 7 8 9 10 11 12 13 14 15 16 17 18 19 20 21 22 23 24 25 26 27 28 29 30 31 32 33 34 35 36 37 38 39 40 41 42 43 44 45 46 47 48 49 50
000
ASUS41 KCLE 161202
RWRCLE
OHIO REGIONAL WEATHER ROUNDUP
NATIONAL WEATHER SERVICE CLEVELAND, OH
700 AM EST SAT DEC 16 2017

NOTE: "FAIR" INDICATES FEW OR NO CLOUDS BELOW 12,000 FEET WITH NO
SIGNIFICANT WEATHER AND/OR OBSTRUCTIONS TO VISIBILITY.

OHZ001>008-015>018-024>027-034-035-043-044-161300-
   NORTHWEST OHIO

CITY           SKY/WX    TMP DP  RH WIND       PRES   REMARKS
DEFIANCE       CLOUDY    33  24  69 SW12      29.93S WCI  24
FINDLAY        CLOUDY    34  24  67 SW18      29.94F WCI  23
TOLEDO EXPRESS CLOUDY    35  25  66 SW13      29.93R WCI  26
TOLEDO EXEC    CLOUDY    33  25  72 SW13      29.94S WCI  24
LIMA           CLOUDY    33  26  75 SW13      29.96F WCI  24
$$

OHZ009>014-019>023-028>033-038-089-161300-
   NORTHEAST OHIO

CITY           SKY/WX    TMP DP  RH WIND       PRES   REMARKS
CLE-HOPKINS    CLOUDY    34  25  69 SW14      29.99R WCI  25
CLE-LAKEFRONT  CLOUDY    34  24  67 SW17G25   29.96R WCI  23
CUY CO. ARPT   FLURRIES  34  28  80 SW13G23   29.96  WCI  25
LORAIN-ELYRIA  CLOUDY    32  21  64 SW14      29.97R WCI  22
ASHTABULA      LGT SNOW  28  26  92 SW9       29.94R FOG     WCI  19
AKRON-CANTON   FLURRIES  30  23  75 SW14      29.98R WCI  19
WOOSTER        CLOUDY    30  23  75 SW13      29.98S WCI  20
MANSFIELD      CLOUDY    32  23  69 SW14      29.97R WCI  22
YOUNGSTOWN     LGT SNOW  28  24  85 SW12      29.96R WCI  18
$$

OHZ042-051>053-060>062-070>072-077>081-161300-
  SOUTHWEST OHIO

CITY           SKY/WX    TMP DP  RH WIND       PRES   REMARKS
CINC-COVINGTON PTCLDY    32  25  75 SW9       30.07S WCI  24
CINC-LUNKEN    PTCLDY    32  25  75 S8        30.11R WCI  25
HAMILTON       MOCLDY    33  25  72 S3        30.08S
DAYTON         CLOUDY    32  26  78 SW13      30.03S WCI  22
WRIGHT-PAT AFB CLOUDY    34  25  69 SW14      30.03S WCI  25
DAYTON GENERAL CLOUDY    33  24  69 SW9       30.04S WCI  25
WILMINGTON     CLOUDY    33  25  72 SW14      30.04S WCI  23
$$

OHZ036-037-039>041-045>050-054>059-063>069-073>076-082>088-161300-
  CENTRAL AND SOUTHEAST OHIO

CITY           SKY/WX    TMP DP  RH WIND       PRES   REMARKS
COLUMBUS       CLOUDY    34  24  67 SW10      30.04S WCI  26
OSU AIRPORT    CLOUDY    33  25  72 SW14      30.02F WCI  23
BOLTON FIELD   CLOUDY    33  25  72 SW16      30.04S WCI  22
RICKENBACK AFB CLOUDY    32  24  73 SW13      30.05R WCI  23
NEWARK         CLOUDY    33  24  69 SW9       30.04R WCI  25
MARION         CLOUDY    32  24  72 SW14      29.99S WCI  22
LANCASTER      CLOUDY    33  24  69 SW9       30.06S WCI  25
ZANESVILLE     CLOUDY    33  22  63 S9        30.06R WCI  25
NEW PHILLY     NOT AVBL
$$




USA.gov is the U.S. government's official web portal to all federal, state and local government web resources and services.